Tracking 19720 objects as of 26-Jun-2019
HD Live streaming from Space Station
objects crossing your sky now

OPS 3151

Track OPS 3151 now!
OPS 3151 is classified as:


NORAD ID: 9803
Int'l Code: 1977-007A
Perigee: 36,223.2 km
Apogee: 36,935.6 km
Inclination: 11.0 °
Period: 1,476.4 minutes
Semi major axis: 42950 km
RCS: Unknown
Launch date: February 6, 1977
Source: United States (US)
Launch site: AIR FORCE EASTERN TEST RANGE (AFETR)
aabbcc
Your satellite tracking list
Your tracking list is empty




NASA's NSSDC Master Catalog

Two Line Element Set (TLE):
1 09803U 77007A   19124.78984029 0.00000000  00000-0  00000-0 0    08
2 09803  10.9998 311.5901 0082936 331.2462  28.3110  0.97533159    04
Source of the keplerian elements: McCants